CZ-6A DEB

Satellite information

Favourite Embed

Satellite Type and Status

DEBRISIN ORBIT

Key statistics

Satellite CZ-6A DEB at a glance.

Uptime

1081

Days in orbit

Revolutions

≈ 14.7

Per day

Orbit

SSO

Sun Synchronous Orbit

Inclination

98.6

Latest

Satellite identification and parameters

Extended collection of information and parameters for CZ-6A DEB.

Object identification

Identified? True

Debris? True

Object name: CZ-6A DEB

International designator: 2022-151TH

Object number (NORAD): 54968

Object ID (CCSDS): 54968

Country: PEOPLES REPUBLIC OF CHINA (PRC)

Current information (Y/N): Y

RCS size: SMALL

Orbital parameters

Period: 98.255 minutes

Inclination: 98.6467 deg

SMA: 7053.376 km

Apoapsis: 730.425 km

Periapsis: 620.057 km

RAAN: 348.4885 deg

Eccentricy: 0.00782381

Argument of periapsis: 292.4773 deg

Mean anomaly: 66.8158 deg

Mean motion: 14.65572223 rev/day

Mean motion (dot): 0.00015126 rev/day2

B* drag term: 0.0026688576 1/REarth

Two-line elements (TLE)

Creation date: Oct. 26, 2025, 10:54 a.m.

Reference frame: TEME

Reference center: EARTH

Epoch: Oct. 26, 2025, 1:59 a.m. UTC

TLE line 0: 0 CZ-6A DEB

TLE line 1: 1 54968U 22151TH 25299.08296124 .00015126 00000-0 26689-2 0 9990

TLE line 2: 2 54968 98.6467 348.4885 0078238 292.4773 66.8158 14.65572223155930

Live tracking on map

Real-time ground track for satellite CZ-6A DEB.

In-orbit conjunctions

A list of the most updated potential collisions computed for object CZ-6A DEB.

Target Orbit TCA Probability of collision Miss distance Type
SL-8 R/B LEO 2025-03-11 13:54:09 0.000194653 164.0 (m) ROCKET BODY
CZ-6A DEB LEO 2025-02-10 08:14:06 0.0007984162 20.0 (m) DEBRIS
FENGYUN 1C DEB SSO 2024-11-15 02:28:10 0.0001816101 478.0 (m) DEBRIS

Associated space launch

Chinese satellite reported for atmospheric/ocean/environmental/spatial parameter research purposes, details TBD.

CZ-6A DEB was lifted into orbit during the mission ‘Long March 6A | Yunhai 3’, on board a Long March 6A space rocket.

The launch took place on Nov. 11, 2022, 10:52 p.m. from Launch Complex 9A.

For more information about the launch, click the button.

Launch to space Long March 6A | Yunhai 3
Long March 6A | Yunhai 3

Agency: N/A

Status: Launch Successful

Launch date: Nov. 11, 2022, 10:52 p.m. UTC

Rocket: Long March 6A

Launch pad: Launch Complex 9A

Location: Taiyuan Satellite Launch Center, People's Republic of China

...

Latest news about this satellite

There are no fresh news available about this satellite. Check back as we update our databases every day.


Newsletter sign-up

Weekly statistics, charts and insights to help you stay on top of the space industry.